{"data":{"norad_id":62770,"epoch":"2026-05-24T22:45:36.811008Z","epoch_age_seconds":89924,"freshness":"FRESH","line1":"1 62770U 25015N   26144.94834272  .00026556  00000+0  86390-3 0  9993","line2":"2 62770  53.1593 327.7505 0000841 104.2618 255.8477 15.31721004 76166","mean_motion":15.31721004,"eccentricity":8.41e-5,"inclination_deg":53.1593,"raan_deg":327.7505,"arg_perigee_deg":104.2618,"mean_anomaly_deg":255.8477,"bstar":0.0008639,"rev_number":7616,"period_min":94.011898788325,"perigee_km":470.10139882038,"apogee_km":471.25336939979,"semimajor_km":6848.8143841101,"source":"CELESTRAK","updated_at":"2026-05-25T13:38:19.745619Z"}}